STARLINK-11251 [DTC] (60930 NORAD) Tracking and Keplerian Element Data

This shows tracking and keplerian element data for the satellite.

Feedback or suggestion? Click here.




ElementValue
Catalog60930
NameSTARLINK-11251 [DTC]
Epoch Orbit608
Epoch Day286.91668981
Epoch Year2024
RAAN348.9553
Inclination53.1591
Eccentricity0.0001071
Argument of Perigee107.569
Mean Anonmoly4.9293
Mean Motion15.69758185
Decay Rate-0.00084562
L11 60930U 24155G 24286.91668981 -.00084562 00000+0 -69883-3 0 9998
L22 60930 53.1591 348.9553 0001071 107.5690 4.9293 15.69758185 6084



Live tracking and technical data element details for STARLINK-11251 [DTC] (NORAD 60930). STARLINK-11251 [DTC] can be tracked NOW for your location showing map with azimuth and elevation plus other details from your city location.







IsCatalogInMostPopularTable: catalog: 60930, numindb: 10
Update: records affected: 1



GetName: 60930 STARLINK-11251 [DTC]

Hit Count: updated at: Tue, 03 Dec 2024 03:10:09 GMT